DW5775 Weather Reports


Display with metric or nautical units.
time (UTC)temp
F
wind
direction
speed
MPH
gust
MPH
rain 1hr
in
rain 24hr
in
rain mn
in
humidity
%
barometer
mb
20260905164549 75 37 0.0 3.0 0.00 0.02 0.00 70 1014.1
20260905163045 75 296 0.0 2.0 0.00 0.02 0.00 73 1013.9
20260905161601 75 285 0.0 4.0 0.00 0.02 0.00 75 1013.9
20260905160040 74 231 0.0 2.0 0.00 0.02 0.00 75 1013.9
20260905154537 73 13 0.0 3.0 0.00 0.10 0.00 76 1013.8
20260905153036 72 34 0.0 2.0 0.00 0.10 0.00 79 1013.7
20260905151531 71 302 0.0 0.0 0.00 0.10 0.00 82 1013.8
20260905150030 71 65 0.0 0.0 0.00 0.10 0.00 83 1013.7
20260905144527 71 116 0.0 1.0 0.00 0.27 0.00 84 1013.7
20260905143024 70 283 0.0 2.0 0.00 0.27 0.00 86 1013.5
20260905141524 70 291 0.0 2.0 0.00 0.27 0.00 87 1013.2
20260905140022 69 70 0.0 0.0 0.00 0.27 0.00 88 1013.4
20260905134521 68 70 0.0 1.0 0.00 0.43 0.00 90 1013.6
20260905133031 68 305 0.0 1.0 0.00 0.43 0.00 90 1013.3
20260905131525 67 49 0.0 2.0 0.00 0.43 0.00 92 1013.2
20260905130019 67 27 0.0 0.0 0.00 0.43 0.00 93 1013.4
20260905124519 67 27 0.0 0.0 0.00 0.50 0.00 93 1013.5
20260905123017 67 27 0.0 0.0 0.00 0.50 0.00 93 1013.6
20260905121515 67 48 0.0 2.0 0.00 0.50 0.00 93 1013.4
20260905120014 67 218 0.0 0.0 0.00 0.50 0.00 93 1013.3
20260905114513 67 223 0.0 0.0 0.00 0.51 0.00 93 1013.2
20260905113012 66 221 0.0 0.0 0.00 0.51 0.00 93 1012.9
20260905111510 66 221 0.0 0.0 0.00 0.51 0.00 93 1012.9
20260905110009 66 218 0.0 0.0 0.00 0.51 0.00 93 1012.8
20260905104508 66 219 0.0 0.0 0.00 0.51 0.00 93 1012.8
20260905103008 66 72 0.0 0.0 0.00 0.51 0.00 94 1012.9
20260905101507 67 70 0.0 0.0 0.00 0.51 0.00 94 1012.7
20260905100005 67 111 0.0 0.0 0.00 0.51 0.00 94 1012.9
20260905094505 67 281 0.0 0.0 0.00 0.51 0.00 94 1012.7
20260905093003 67 281 0.0 0.0 0.00 0.51 0.00 94 1012.6
20260905091503 67 281 0.0 0.0 0.00 0.51 0.00 94 1012.9
20260905090002 67 281 0.0 0.0 0.00 0.51 0.00 94 1012.7
20260905084601 67 281 0.0 0.0 0.00 0.51 0.00 94 1012.4
20260905083119 67 281 0.0 0.0 0.00 0.51 0.00 94 1012.2
20260905081608 67 281 0.0 0.0 0.00 0.51 0.00 94 1012.1
20260905080058 68 281 0.0 0.0 0.00 0.51 0.00 94 1012.1
20260905074558 68 281 0.0 0.0 0.00 0.51 0.00 95 1012.3
20260905073058 68 281 0.0 0.0 0.00 0.51 0.00 95 1012.6
20260905071557 68 281 0.0 0.0 0.00 0.51 0.00 95 1012.4
20260905070055 68 283 0.0 0.0 0.00 0.51 0.00 95 1012.1
20260905064612 68 283 0.0 0.0 0.00 0.51 0.00 96 1012.0
20260905063055 67 283 0.0 0.0 0.00 0.51 0.00 96 1011.9
20260905061553 68 283 0.0 0.0 0.00 0.51 0.00 96 1011.9
20260905060051 68 281 0.0 0.0 0.00 0.51 0.00 96 1012.4
20260905054634 68 281 0.0 0.0 0.00 0.51 0.00 96 1012.5
20260905053048 69 281 0.0 0.0 0.00 0.51 0.00 96 1012.8
20260905051546 69 281 0.0 0.0 0.00 0.51 0.00 95 1012.6
20260905050045 69 281 0.0 0.0 0.00 0.51 0.00 95 1012.4
20260905044542 69 281 0.0 0.0 0.00 0.51 0.00 95 1012.5
20260905043040 70 283 0.0 0.0 0.00 0.51 0.00 95 1012.8
20260905041539 70 283 0.0 0.0 0.00 0.51 0.00 95 1012.8
20260905040039 70 319 0.0 0.0 0.00 0.51 0.00 95 1012.8
20260905034536 70 319 0.0 0.0 0.00 0.51 0.51 95 1012.8
20260905033039 71 319 0.0 0.0 0.00 0.51 0.51 95 1013.3
20260905031541 71 319 0.0 0.0 0.00 0.51 0.51 95 1013.4
20260905030037 71 319 0.0 0.0 0.00 0.51 0.51 95 1013.3
20260905024540 71 319 0.0 0.0 0.00 0.51 0.51 96 1013.4
20260905023034 71 319 0.0 0.0 0.00 0.51 0.51 96 1013.2
20260905021536 71 92 0.0 0.0 0.00 0.51 0.51 96 1013.1
20260905020037 71 94 0.0 0.0 0.00 0.51 0.51 96 1013.1
20260905014532 71 94 0.0 0.0 0.00 0.51 0.51 96 1013.2
20260905013032 71 94 0.0 0.0 0.00 0.51 0.51 96 1013.0
20260905011531 71 94 0.0 0.0 0.00 0.51 0.51 95 1013.1
20260905010038 71 94 0.0 0.0 0.00 0.51 0.51 95 1012.9
20260905004533 72 95 0.0 0.0 0.00 0.51 0.51 95 1012.8
20260905003029 72 94 0.0 0.0 0.00 0.51 0.51 95 1012.8
20260905001529 73 94 0.0 0.0 0.00 0.51 0.51 94 1012.8
20260905000033 73 94 0.0 0.0 0.00 0.51 0.51 94 1012.7
20260904234528 74 94 0.0 0.0 0.00 0.51 0.51 93 1012.6
20260904233027 74 94 0.0 0.0 0.00 0.51 0.51 93 1012.5
20260904231527 75 94 0.0 0.0 0.00 0.51 0.51 93 1012.3
20260904230026 75 95 0.0 0.0 0.00 0.51 0.51 93 1012.3
20260904224525 75 94 0.0 0.0 0.00 0.51 0.51 93 1012.1
20260904223025 75 93 0.0 0.0 0.00 0.51 0.51 93 1012.1
20260904221524 75 93 0.0 0.0 0.00 0.51 0.51 92 1012.0
20260904220024 75 92 0.0 1.0 0.00 0.51 0.51 91 1011.8
20260904214523 76 94 0.0 0.0 0.00 0.51 0.51 92 1012.0
20260904213023 75 95 0.0 0.0 0.00 0.51 0.51 92 1011.8
20260904211520 75 94 0.0 2.0 0.00 0.51 0.51 93 1011.5
20260904210021 75 55 0.0 1.0 0.00 0.51 0.51 95 1011.5
20260904204516 74 1 0.0 0.0 0.00 0.57 0.51 96 1011.4
20260904203020 74 34 0.0 0.0 0.00 0.57 0.51 96 1011.4
20260904201513 73 34 0.0 3.0 0.00 0.57 0.51 96 1011.4
20260904200010 74 108 0.0 0.0 0.00 0.57 0.51 96 1011.8
20260904194506 73 89 0.0 0.0 0.00 1.13 0.51 96 1011.9
20260904193005 72 146 0.0 0.0 0.00 1.13 0.51 96 1012.1
20260904191503 72 146 0.0 0.0 0.00 1.13 0.51 97 1012.3
20260904190100 72 146 0.0 0.0 0.00 1.13 0.51 97 1012.5
20260904184604 72 158 0.0 2.0 0.00 1.13 0.51 97 1012.7
20260904183055 71 166 0.0 3.0 0.00 1.13 0.51 97 1012.8
20260904181553 71 156 0.0 1.0 0.00 1.13 0.51 97 1013.0
20260904180052 71 127 0.0 1.0 0.00 1.13 0.51 97 1013.1
20260904174551 71 203 0.0 2.0 0.00 1.13 0.51 97 1013.1
20260904173103 71 202 0.0 1.0 0.00 1.13 0.51 97 1013.3
20260904171550 71 206 0.0 0.0 0.00 1.13 0.51 97 1013.4
20260904170048 70 39 0.0 0.0 0.02 1.13 0.51 97 1013.0